Home > Weather > Québec > Past weeks

Flag for Canada Past Weather in Québec, Quebec, Canada — Yesterday and Last 2 Weeks

Now
59 °F

Passing clouds.


Feels Like: 59 °F
Forecast: 54 / 84 °F
Wind: 5 mph from Northeast

Location: Quebec Weather Station

Current Time: Jun 25, 2016 at 1:21:47 AM

Latest Report: Jun 25, 2016 at 1:00 AM


Visibility: 15 mi

Pressure: 30.10 "Hg

Humidity: 72%

Dew Point: 50 °F

Location of QuébecLocation

Past Weather in Québec — Graph

°F

Québec Temperature Yesterday

Maximum temperature yesterday: 73 °F (at 5:00 PM)
Minimum temperature yesterday: 45 °F (at 4:00 AM)
Average temperature yesterday: 60 °F

High & Low Weather Summary for the Past Weeks

 TemperatureHumidityPressure
High88 °F (Jun 19, 4:00 PM)100% (Jun 12, 5:00 AM)30.22 "Hg (Jun 12, 5:00 AM)
Low45 °F (Jun 10, 2:00 AM)24% (Jun 17, 2:00 PM)29.39 "Hg (Jun 12, 6:00 AM)
Average63 °F66%29.84 "Hg
* Reported Jun 10 12:00 AM — Jun 25 12:00 AM, Québec, Weather by CustomWeather, © 2016

Note: Actual official high and low records may vary slightly from our data, if they occured in-between our weather recording intervals... More about our weather records

Advertising

Québec Weather History for the Previous 24 Hours

Scroll right to see more
 ConditionsComfort  
Time TempWeatherWind HumidityBarometerVisibility
12:00 AM
Sat, Jun 25
59 °FPassing clouds.No wind72%30.09 "Hg15 mi
11:00 PM
Fri, Jun 24
57 °FPassing clouds.2 mph77%30.09 "Hg15 mi
10:00 PM61 °FPassing clouds.6 mph68%30.09 "Hg15 mi
9:00 PM64 °FPassing clouds.2 mph60%30.08 "Hg30 mi
8:00 PM66 °FPartly sunny.7 mph56%30.07 "Hg30 mi
7:00 PM72 °FPartly sunny.15 mph44%30.06 "Hg30 mi
6:00 PM72 °FPartly sunny.16 mph41%30.06 "Hg30 mi
5:00 PM73 °FPartly sunny.13 mph38%30.05 "Hg30 mi
4:00 PM72 °FScattered clouds.16 mph38%30.06 "Hg30 mi
3:00 PM72 °FScattered clouds.15 mph41%30.06 "Hg30 mi
2:00 PM70 °FScattered clouds.15 mph43%30.06 "Hg30 mi
1:00 PM68 °FPassing clouds.9 mph43%30.06 "Hg30 mi
12:00 PM66 °FPassing clouds.8 mph43%30.06 "Hg30 mi
11:00 AM64 °FPassing clouds.10 mph46%30.08 "Hg30 mi
10:00 AM63 °FPassing clouds.5 mph49%30.08 "Hg30 mi
9:00 AM59 °FPassing clouds.3 mph59%30.09 "Hg30 mi
8:00 AM55 °FPassing clouds.No wind67%30.08 "Hg30 mi
7:00 AM52 °FPassing clouds.3 mph72%30.06 "Hg30 mi
6:00 AM46 °FPassing clouds.2 mph82%30.04 "Hg30 mi
5:00 AM46 °FPassing clouds.6 mph82%30.02 "Hg30 mi
4:00 AM45 °FPassing clouds.6 mph87%30.00 "Hg15 mi
3:00 AM46 °FClear.5 mph82%29.98 "Hg15 mi
2:00 AM48 °FClear.7 mph82%29.97 "Hg15 mi
1:00 AM50 °FClear.6 mph82%29.96 "Hg15 mi
Weather by CustomWeather, © 2016

See weather overviewHow to use our weather pages